Flag for Switzerland Weather past 2 weeks in Bern, Bern, Switzerland

32 °F


Feels Like: 29 °F
Forecast: 13 / 38 °F
Wind: 3 mph from Southeast

Location: Bern / Belp

Current Time: Nov 28, 2015 at 12:42:20 AM

Latest Report: Nov 27, 2015 at 11:50 PM

Visibility: N/A

Pressure: 29.98 "Hg (28.05 "Hg at 533m altitude)

Humidity: 93%

Dew point: 30 °F

Location of BernLocation

Historic Weather in Bern — Graph


Bern temperature yesterday

Maximum temperature yesterday: 39 °F (at 11:50 AM)
Minimum temperature yesterday: 28 °F (at 1:20 AM)
Average temperature yesterday: 33 °F

Past Weeks' High & Low Weather Summary

High63 °F (Nov 15, 2:20 PM)100% (Nov 12, 11:20 PM)30.48 "Hg (Nov 12, 11:20 PM)
Low19 °F (Nov 24, 4:50 AM)51% (Nov 19, 5:20 PM)29.45 "Hg (Nov 21, 12:50 PM)
Average42 °F88%30.08 "Hg
* Reported Nov 12 11:20 PM — Nov 27 11:20 PM, Bern, Weather by CustomWeather, © 2015

Note: Actual official high and low records may vary slightly from our data, if they occured in-between our weather recording intervals... More about our weather records


Bern weather history for previous 24 hours

Time TempWeatherWind HumidityBarometerVisibility
11:20 PM
Fri, Nov 27
34 °FOvercast.2 mph87%29.98 "HgN/A
10:50 PM32 °FPassing clouds.1 mph93%29.98 "HgN/A
9:50 PM32 °FPassing clouds.2 mph93%29.98 "HgN/A
9:20 PM32 °FPassing clouds.2 mph87%29.98 "HgN/A
8:50 PM34 °FOvercast.2 mph81%29.98 "HgN/A
8:20 PM34 °FOvercast.3 mph87%29.98 "HgN/A
7:50 PM34 °FPassing clouds.6 mph87%29.98 "HgN/A
7:20 PM34 °FOvercast.3 mph87%29.98 "HgN/A
6:50 PM34 °FOvercast.5 mph87%29.98 "HgN/A
6:20 PM34 °FPassing clouds.5 mph87%29.98 "HgN/A
5:50 PM34 °FPassing clouds.2 mph87%29.98 "HgN/A
5:20 PM36 °FPassing clouds.2 mph75%29.98 "HgN/A
4:50 PM36 °FPassing clouds.2 mph81%29.98 "HgN/A
4:20 PM36 °FPartly sunny.2 mph75%29.98 "HgN/A
3:50 PM37 °FPartly sunny.5 mph70%29.98 "HgN/A
3:20 PM37 °FPartly sunny.5 mph70%29.98 "HgN/A
2:50 PM37 °FPartly sunny.7 mph70%29.98 "HgN/A
2:20 PM37 °FPartly sunny.6 mph75%29.98 "HgN/A
1:50 PM37 °FPartly sunny.8 mph70%29.98 "HgN/A
1:20 PM37 °FBroken clouds.7 mph75%30.01 "HgN/A
12:50 PM37 °FPartly sunny.7 mph75%30.01 "HgN/A
12:20 PM39 °FPartly sunny.5 mph70%30.01 "HgN/A
11:50 AM39 °FScattered clouds.6 mph81%30.01 "HgN/A
11:20 AM37 °FScattered clouds.6 mph81%30.01 "HgN/A
10:50 AM36 °FPassing clouds.3 mph87%30.01 "HgN/A
10:20 AM34 °FScattered clouds.6 mph100%30.01 "HgN/A
9:50 AM34 °FPartly sunny.5 mph100%30.04 "Hg6 mi
9:20 AM32 °FPartly sunny.2 mph100%30.04 "HgN/A
8:50 AM32 °FPartly sunny.5 mph100%30.04 "HgN/A
7:50 AM32 °FPartly sunny.2 mph100%30.04 "Hg4 mi
7:20 AM30 °FPassing clouds.2 mph100%30.04 "Hg4 mi
6:50 AM30 °FPassing clouds.2 mph100%30.04 "Hg4 mi
6:20 AM30 °FPassing clouds.2 mph100%30.04 "Hg5 mi
5:50 AM30 °FPassing clouds.5 mph100%30.04 "Hg5 mi
4:50 AM30 °FPassing clouds.No wind100%30.04 "Hg3 mi
4:20 AM28 °FPassing clouds.1 mph100%30.04 "Hg4 mi
3:50 AM28 °FPassing clouds.1 mph100%30.04 "Hg3 mi
3:20 AM28 °FIce fog.2 mph100%30.04 "Hg2 mi
2:50 AM28 °FChilly.2 mph100%30.04 "Hg4 mi
2:20 AM28 °FChilly.3 mph100%30.07 "Hg5 mi
1:50 AM28 °FPassing clouds.5 mph100%30.07 "HgN/A
1:20 AM28 °FChilly.2 mph100%30.07 "Hg5 mi
12:50 AM30 °FClear.2 mph100%30.07 "Hg10 mi
12:20 AM30 °FIce fog.2 mph100%30.07 "Hg1 mi
Weather by CustomWeather, © 2015

See weather overviewHow to use our weather pages